www.pogodaiklimat.ru

Погода и климат >> Архив погоды >> Мексика >> La Paz


ПОГОДА в La Paz

  • Прогноз погоды в La Paz
  • Монитор погоды в La Paz
  • Климат города

АРХИВ ПОГОДЫ в La Paz

Время (UTC), дата Ветер
(напр.,м/с)
 
Видим.   Явления Облачность Т
(С)
Тd
(С)
f
(%)
Тe
(С)
Тes
(С)
Комфортность P
(гПа)
Po
(гПа)
Тmin
(С)
Tmax
(С)
R
(мм)
R24
(мм)
S
(см)
00 18.05 СЗ 2 30 км 1/1 1000 м
[Sc diur, vesp]
+30.1 +15.4 41 +33 +37 душно 1010.1 1008.0 +14.0 +30.8
03 18.05 СЗ 2 30 км 1/1 1000 м
[Sc diur, vesp]
+30.1 +15.4 41 +33 +33 душно 1010.1 1008.0 +14.0 +30.8
06 18.05 Ю 4 2000 м 1/0
[Ci fib]
+23.4 +12.7 51 +26 +26 жарко 1010.8 1008.7
09 18.05 Ю 3 2000 м 4/0
[Ci fib]
+17.8 +13.2 74 +18 +18 1010.7 1008.7
12 18.05 Ю 2 2000 м 8/0 2000 м
[As trans]
+16.1 +11.9 76 +16 +16 1010.1 1008.0 +16.1 +30.8
15 18.05 Ю 4 25 км 8/0 2000 м
[As trans Ci fib]
+18.2 +13.6 75 +18 +21 1011.6 1009.5
18 18.05 Ю 4 30 км 6/0 2000 м
[As trans Ci fib]
+28.6 +13.1 38 +30 +40 жарко 1011.2 1009.1 +15.5 +28.6
21 18.05 ЮЗ 2 30 км 6/0 2000 м
[As trans Ci fib]
+32.8 +12.4 29 +33 +46 жарко 1009.1 1007.0
00 19.05 З 2 30 км 9/0 2000 м
[Ac trans Cs]
+31.4 +14.0 35 +33 +36 жарко 1008.1 1006.0 +15.5 +33.6
03 19.05 Ю 3 2000 м 8/0 2000 м
[Ac trans Cs]
+24.0 +15.3 58 +27 +27 жарко 1008.9 1006.9
06 19.05 Ю 4 2000 м 4/0
[Ci fib]
+19.4 +14.6 74 +21 +21 комфорт 1009.8 1007.7 +15.5 +33.6
09 19.05 Ю 4 2000 м 4/0
[Ci fib]
+17.6 +14.0 79 +17 +17 1009.4 1007.3
12 19.05 Ю 3 2000 м 5/0 2000 м
[As trans]
+16.4 +14.3 87 +16 +16 1009.9 1007.8 +16.2 +33.6
15 19.05 Ю 3 25 км 6/0 2000 м
[As op]
+19.6 +15.0 75 +22 +24 комфорт 1011.3 1009.2
18 19.05 СЗ 2 25 км 8/0
[Cs]
+27.4 +16.2 50 +31 +47 душно 1011.0 1008.9 +16.0 +27.6
21 19.05 СЗ 3 25 км 8/0 2000 м
[As trans Cs]
+29.0 +16.9 48 +33 +44 очень
душно
1009.5 1007.4
00 20.05 С 3 30 км 6/0 2000 м
[Ac trans Ci fib]
+30.8 +15.9 41 +34 +37 очень
душно
1008.0 1006.0 +16.0 +31.4
03 20.05 СЗ 1 2000 м 3/0 2000 м
[Ac trans Ci]
+25.7 +17.0 59 +30 +30 душно 1008.9 1006.9
06 20.05 Ю 2 2000 м 1/0
[Cs]
+21.0 +15.7 72 +25 +25 комфорт 1009.7 1007.7 +16.0 +31.4
09 20.05 Ю 1 2000 м 1/0
[Ci fib]
+18.8 +15.0 79 +21 +21 комфорт 1009.1 1007.0
12 20.05 Ю 1 2000 м 1/0
[Ci fib]
+18.2 +14.2 77 +20 +20 1009.3 1007.2 +17.6 +31.4
15 20.05 Ю 1 25 км 6/0
[Ci fib]
+22.6 +16.6 69 +27 +33 душно 1010.5 1008.4
18 20.05 С 3 30 км 6/0 2000 м
[As trans Ci fib]
+29.1 +14.0 40 +31 +43 жарко 1009.9 1007.8 +17.4 +29.6
21 20.05 СЗ 3 30 км 1/0
[Ci fib]
+32.7 +13.7 32 +34 +49 очень
жарко
1008.4 1006.4
00 21.05 СЗ 4 30 км 3/0
[Ci fib]
+31.4 +13.8 34 +33 +36 жарко 1007.3 1005.3 +17.4 +34.7
03 21.05 Ю 4 2000 м 1/0
[Ci fib]
+25.0 +13.2 48 +27 +27 жарко 1009.5 1007.4
06 21.05 Ю 3 2000 м 1/0
[Ci fib]
+21.8 +13.8 60 +25 +25 комфорт 1010.8 1008.7 +17.4 +34.7
09 21.05 Ю 2 2000 м ясно +18.6 +14.4 77 +20 +20 1010.4 1008.4
12 21.05 Ю 3 2000 м ясно +17.1 +13.1 77 +17 +17 1010.9 1008.8 +16.6 +34.7
15 21.05 Ю 1 25 км 3/0
[Ci fib]
+22.0 +14.0 60 +25 +31 комфорт 1012.6 1010.4
18 21.05 СЗ 2 30 км 1/0
[Ci fib]
+31.8 +15.3 37 +34 +54 опасность
солнечного
удара
1012.1 1010.0 +16.6 +32.5
21 21.05 СЗ 4 30 км 1/0
[Ci fib]
+34.0 +16.0 34 +36 +49 душно 1011.0 1008.9
00 22.05 СЗ 3 30 км 1/0
[Ci fib]
+34.2 +14.0 30 +35 +39 очень
жарко
1009.7 1007.6 +16.6 +35.3
03 22.05 Ю 3 2000 м 1/0
[Ci fib]
+25.1 +15.9 57 +28 +28 жарко 1011.4 1009.4
06 22.05 Ю 3 2000 м ясно +22.4 +15.0 63 +26 +26 жарко 1012.0 1010.0 +16.6 +35.3
12 22.05 Ю 2 2000 м ясно +20.0 +12.0 60 +22 +22 комфорт 1010.4 1008.3 +19.6 +35.3
15 22.05 Ю 1 25 км ясно +23.9 +13.9 54 +26 +33 жарко 1011.9 1009.8
18 22.05 З 2 30 км ясно +34.9 +15.4 31 +37 +57 опасность
солнечного
удара
1012.1 1010.0 +18.8 +35.7
21 22.05 СЗ 5 30 км ясно +35.8 +11.6 23 +35 +45 очень
жарко
1010.7 1008.7
00 23.05 С 1 30 км 1/0 2000 м
[Ac und]
+37.4 +15.0 27 +39 +44 очень
душно
1009.3 1007.2 +18.8 +38.2
03 23.05 Ю 4 2000 м 1/0
[Ci fib]
+28.2 +14.2 42 +30 +30 жарко 1010.9 1008.8
06 23.05 Ю 3 2000 м ясно +25.3 +13.8 49 +28 +28 жарко 1011.9 1009.8 +18.8 +38.2
09 23.05 Ю 3 2000 м ясно +20.4 +13.3 64 +23 +23 комфорт 1010.9 1008.8
12 23.05 Ю 2 2000 м ясно +20.2 +10.7 54 +22 +22 комфорт 1010.1 1008.0 +20.0 +38.2
15 23.05 Ю 2 25 км ясно +26.0 +12.9 44 +28 +33 жарко 1011.7 1009.6
18 23.05 СЗ 3 30 км ясно +33.8 +13.4 29 +35 +51 опасность
солнечного
удара
1011.2 1009.2 +19.5 +34.0
21 23.05 С 3 30 км ясно +36.8 +12.0 23 +37 +52 опасность
солнечного
удара
1009.5 1007.5
00 24.05 СЗ 2 30 км ясно +37.2 +12.4 23 +37 +41 очень
жарко
1008.1 1006.1 +19.5 +38.8
03 24.05 Ю 4 2000 м ясно +28.0 +16.2 49 +31 +31 душно 1009.7 1007.7
06 24.05 Ю 4 2000 м ясно +22.7 +16.8 69 +27 +27 душно 1010.9 1008.8 +19.5 +38.8
09 24.05 Ю 3 2000 м ясно +21.2 +15.4 69 +24 +24 комфорт 1009.2 1007.2
12 24.05 Ю 3 2000 м ясно +19.2 +14.7 75 +21 +21 комфорт 1008.4 1006.3 +19.0 +38.8
15 24.05 Ю 4 25 км ясно +23.2 +16.7 67 +28 +32 душно 1009.8 1007.7
18 24.05 Ю 3 30 км ясно +32.5 +19.0 45 +38 +54 опасность
солнечного
удара
1009.3 1007.2 +19.0 +32.5

 

Местоположение метеостанции La Paz (Мексика): широта 24.17 долгота -110.30 высота над уровнем моря 18 м.

В архиве по умолчанию представлена погода в La Paz за последнюю неделю. Архивные данные за месяц целиком и за предыдущие месяцы, начиная с января 2011 года, Вы можете получить, выбрав интересующий диапазон дат из раскрывающегося списка и нажав кнопку "Ввод!".

Внимание! Время в таблицах - всемирное. Для получения местного времени необходимо прибавить поправку, которая в La Paz равна -6 ч.

Смотрите также архив погоды в соседних городах и на ближайших метеорологических станциях:

Погода в Ciudad Constitucion (Мексика) (166 км)
Погода в Loreto (Мексика) (229 км)
Погода в Culiacan (Мексика) (302 км)
Погода в Choix (Мексика) (354 км)
Погода в Ciudad Obregon (Мексика) (361 км)
Погода в Santa Rosalia (Мексика) (397 км)
Погода в Colonia Juan Carras-Co (Мексика) (412 км)
Погода в Guaymas Upper Air Site (Мексика) (421 км)
Погода в Empalme (Мексика) (422 км)
Погода в Tepehuanes (Мексика) (481 км)

Пояснения к столбцам:

Ветер - указаны скорость ветра в м/с - средняя за 10 мин, порывы в срок и между сроками (в фигурных скобках) и направление, откуда дует ветер: С - северный, СВ - северо-восточный, В - восточный, ЮВ - юго-восточный, Ю - южный, ЮЗ - юго-западный, З - западный, СЗ - северо-западный.
Видимость - горизонтальная дальность видимости в метрах или километрах. При видимости от 1 до 10 км при отсутствии осадков обычно наблюдается дымка, при ухудшении видимости до 1 км и менее - туман. В сухую погоду видимость может ухудшаться дымом, пылью или мглою.
Явления - указаны атмосферные явления, наблюдавшиеся в срок или в последний час перед сроком; фигурными скобками обозначены явления, наблюдавшиеся между сроками (за 1-3 часа до срока); квадратными скобками обозначены град или гололедные отложения с указанием их диаметра в мм.
Облачность - указаны через наклонную черту общая и нижняя облачность в баллах и высота нижней границы облаков в метрах; квадратными скобками обозначены формы облаков: Ci - перистые, Cs - перисто-слоистые, Cc - перисто-кучевые, Ac - высококучевые, As - высокослоистые, Sc - слоисто-кучевые, Ns - слоисто-дождевые, Cu - кучевые, Cb - кучево-дождевые. Подробнее классификацию облаков см. в Атласе облаков (PDF).
T - Температура воздуха - температура, измеренная на высоте 2 м над землей.
Td - Температура точки росы - температура, при понижении до которой содержащийся в воздухе водяной пар достигнет насыщения.
f - Относительная влажность воздуха - влажноcть воздуха, измеренная на высоте 2 м над землей.
Te - Эффективная температура - температура, которую ощущает одетый по сезону человек в тени. Характеристика душности погоды. При расчете учитывается влияние влажности воздуха и скорости ветра на теплоощущения человека.
Tes - Эффективная температура на солнце - температура, которую ощущает человек, с поправкой на солнечный нагрев. Характеристика знойности погоды. Зависит от высоты солнца над горизонтом, облачности и скорости ветра. Ночью, в пасмурную погоду, а также при ветре 12 м/с и более поправка равна нулю.
P - Атмосферное давление - приведенное к уровню моря атмосферное давление.
Po - Атмосферное давление - измеренное на уровне метеостанции атмосферное давление.
Tmin - Минимальная температура - минимум температуры воздуха на высоте 2 м над землей.
Tmax - Максимальная температура - максимум температуры воздуха на высоте 2 м над землей.
R - Количество осадков - Количество выпавших осадков за период времени, мм. При наведении курсора мыши на число - период времени, за который выпало указанное количество осадков.
R24 - Количество осадков - Количество выпавших осадков за 24 часа, мм.
S - Снежный покров - Высота снежного покрова, см. При наведении курсора мыши на число - состояние снежного покрова и степень покрытия местности в баллах.